Regional Weather Roundup
Issued by NWS Kansas City/Pleasant Hill, MO

Home | Current Version | Previous Version | Text Only | Print | Product List | Glossary On
Versions: 1 2 3 4 5 6 7 8 9 10 11 12 13 14 15 16 17 18 19 20 21 22 23 24 25 26 27 28 29 30 31 32 33 34 35 36 37 38 39 40 41 42 43 44 45 46 47 48 49 50
000
ASUS43 KEAX 260804
RWREAX

WEATHER ROUNDUP FOR EASTERN KANSAS AND NORTHWEST MISSOURI
NATIONAL WEATHER SERVICE KANSAS CITY/PLEASANT HILL MO
300 AM CDT TUE MAY 26 2015

KSZ040-057-103>105-MOZ028-029-037-043-260900-
...KANSAS CITY METROPOLITAN AREA...

CITY           SKY/WX    TMP DP  RH WIND       PRES   REMARKS
K.C. INTL      LGT RAIN  61  60  97 N8        29.80F
K.C. DOWNTOWN  LGT RAIN  63  60  90 N6        29.78F
LEES SUMMIT    LGT RAIN  62  61  96 NW12G20   29.76F
OLATHE - IXD   LGT RAIN  62  61  96 N8        29.80F
OLATHE - OJC   LGT RAIN  62  61  96 N8        29.78F
LAWRENCE       LGT RAIN  62  59  90 NW13      29.80F

$$

MOZ001>008-011>017-020>025-030>033-038>040-044>046-053-054-260900-
...NORTHERN AND CENTRAL MISSOURI...

CITY           SKY/WX    TMP DP  RH WIND       PRES   REMARKS
ST. JOSEPH     LGT RAIN  61  60  97 W5        29.83F
MOSBY          DRIZZLE   61  61 100 NW8       29.78F
WARRENSBURG    CLOUDY    68  64  88 SE7       29.74F
WHITEMAN AFB   PTCLDY    68  66  94 SE8       29.75F
CLINTON        CLOUDY    70  64  83 S15G22    29.77F
SEDALIA        LGT RAIN  70  65  84 SE15      29.79F
WARSAW         NOT AVBL
CHILLICOTHE      N/A     65  60  84 CALM      29.78F
KIRKSVILLE     CLOUDY    69  67  93 SE10      29.81F

$$

MOZ041-047>049-056>058-063>065-088>090-097-260900-
...EASTERN AND SOUTHERN MISSOURI...

CITY           SKY/WX    TMP DP  RH WIND       PRES   REMARKS
ST. LOUIS INTL CLOUDY    74  67  78 SE15G21   29.88F
SPIRIT OF STL  CLOUDY    73  68  84 S9G21     29.86F
COLUMBIA       LGT RAIN  69  67  93 SE14G22   29.80F
JEFFERSON CITY CLOUDY    70  66  87 SE10      29.80F
ROLLA          CLOUDY    64  62  93 SE13G18   29.82F
OSAGE BEACH    CLOUDY    66  63  88 E7        29.80S
SPRINGFIELD    LGT RAIN  63  59  87 S13       29.84R
BRANSON        CLOUDY    59  59 100 CALM      29.86R THUNDER
JOPLIN         CLOUDY    63  60  90 SW13      29.84R
WEST PLAINS    CLOUDY    63  61  93 SE9       29.85F

$$

IAZ060-094-KSZ022-034>040-054-083-096-NEZ052-066-093-260900-
...KANSAS...SOUTHEAST NEBRASKA AND IOWA...

CITY           SKY/WX    TMP DP  RH WIND       PRES   REMARKS
TOPEKA         LGT RAIN  61  60  97 NW7       29.82F
MANHATTAN      LGT RAIN  61  59  93 E5        29.82S
EMPORIA        LGT RAIN  60  59  96 E7        29.81F
CHANUTE        CLOUDY    62  59  90 CALM      29.82R
WICHITA        LGT RAIN  60  58  92 S7        29.84F
OMAHA          CLOUDY    64  57  78 S8        29.78S
LINCOLN        CLOUDY    60  57  89 SE7       29.78S
FALLS CITY     LGT RAIN  61  60  97 S9        29.83S
LAMONI         LGT RAIN  63  59  87 W6        29.82F
DES MOINES     LGT RAIN  63  59  87 E6        29.77F

$$




USA.gov is the U.S. government's official web portal to all federal, state and local government web resources and services.